Voltar ao catálogo

STARLINK-37437

AtivoComunicaçõesVLEO
NORAD 69170·PAYLOAD·🇺🇸 United States

Lançado May 21, 2026 de Cape Canaveral Space Force Station

Loading…

Próximas Passagens (próximas 24 horas)

TLE

AtualizadoSource: CelesTrak SupGP

Época: Sep 14, 2026, 14:55 UTC

1 69170C 26111Y   26257.62201389 -.00013167  00000+0 -38898-3 0  2572
2 69170  53.1569  93.0317 0001289  96.1195  82.4457 15.34400195    11

Acompanhe STARLINK-37437 em tempo real com AllMySat

Download on the App Store